This demonstration page uses our WeatherBlox Daily Observations layout. Learn more.

Left ArrowRight Arrow

Hourly Observations for November 23, 2015

Temp ( °F °C ) Dew Point ( °F °C ) Humidity (%) Winds ( mph kmh ) Pressure ( in mb ) Visibility ( mi km ) Precip ( " mm )
12:53 am 00:53 Clear 29 -1.7 23 -5 78 78 ENE 9 15 29.99 1016 10 16 0.00 0.00
1:53 am 01:53 Clear 29 -1.7 22 -5.6 75 75 NE 9 15 29.99 1016 10 16 0.00 0.00
2:53 am 02:53 Clear 29 -1.7 22 -5.6 75 75 ENE 12 19 30.01 1016 10 16 0.00 0.00
3:53 am 03:53 Clear 27 -2.8 21 -6.1 78 78 E 13 20 30.01 1016 10 16 0.00 0.00
4:53 am 04:53 Mostly Cloudy 27 -2.8 22 -5.6 81 81 E 10 17 30.02 1017 10 16 0.00 0.00
5:53 am 05:53 Clear 28 -2.2 22 -5.6 78 78 E 9 15 30.01 1016 10 16 0.00 0.00
6:53 am 06:53 Clear 29 -1.7 23 -5 78 78 E 6 9 30.01 1016 10 16 0.00 0.00
7:53 am 07:53 Cloudy 31 -0.6 23 -5 72 72 E 13 20 29.99 1016 10 16 0.00 0.00
8:53 am 08:53 Mostly Cloudy 33 0.6 23 -5 66 66 ENE 13 20 29.98 1015 10 16 0.00 0.00
9:53 am 09:53 Sunny 34 1.1 24 -4.4 67 67 ESE 7 11 29.98 1015 10 16 0.00 0.00
10:53 am 10:53 Sunny 37 2.8 25 -3.9 62 62 ESE 8 13 29.94 1014 10 16 0.00 0.00
11:53 am 11:53 Sunny 43 6.1 25 -3.9 49 49 ENE 13 20 29.90 1012 10 16 0.00 0.00
12:53 pm 12:53 Sunny 44 6.7 25 -3.9 47 47 ENE 14 22 29.86 1011 10 16 0.00 0.00
1:53 pm 13:53 Sunny 45 7.2 27 -2.8 49 49 Calm 29.83 1010 10 16 0.00 0.00
2:53 pm 14:53 Mostly Sunny 45 7.2 26 -3.3 48 48 SSW 3 6 29.80 1009 10 16 0.00 0.00
3:53 pm 15:53 Mostly Sunny 42 5.6 25 -3.9 51 51 E 10 17 29.80 1009 10 16 0.00 0.00
4:53 pm 16:53 Mostly Clear 39 3.9 26 -3.3 60 60 Calm 29.80 1009 10 16 0.00 0.00
5:53 pm 17:53 Mostly Clear 34 1.1 23 -5 64 64 E 5 7 29.79 1009 10 16 0.00 0.00
6:53 pm 18:53 Clear 33 0.6 23 -5 66 66 ENE 7 11 29.78 1008 10 16 0.00 0.00
7:53 pm 19:53 Clear 31 -0.6 23 -5 72 72 ENE 6 9 29.76 1008 10 16 0.00 0.00
8:53 pm 20:53 Clear 28 -2.2 21 -6.1 75 75 ENE 8 13 29.75 1007 10 16 0.00 0.00
9:53 pm 21:53 Clear 27 -2.8 21 -6.1 78 78 E 6 9 29.75 1008 10 16 0.00 0.00
10:53 pm 22:53 Clear 25 -3.9 21 -6.1 85 85 Calm 29.75 1008 10 16 0.00 0.00
11:53 pm 23:53 Cloudy 24 -4.4 20 -6.7 84 84 Calm 29.74 1007 10 16 0.00 0.00

Powered by AerisWeather